Weather History for Thermopolis, WY

Change the Weather History Date:

Sunday, December 23, 2012

  Actual Average (KWRL) Record (KWRL)
Temperature  
Mean Temperature 26 °F 16 °F  
Max Temperature 30 °F 29 °F 55 °F (1964)
Min Temperature 21 °F 3 °F -40 °F (1983)
Degree Days  
Heating Degree Days 40 49  
Month to date heating degree days 1078  
Since 1 July heating degree days 2970  
Cooling Degree Days 0 0  
Month to date cooling degree days 0  
Year to date cooling degree days 535  
Moisture  
Dew Point 7 °F    
Average Humidity 44    
Maximum Humidity 59    
Minimum Humidity 29    
Precipitation  
Precipitation 0.00 in 0.01 in 0.13 in (1987)
Month to date precipitation 0.17  
Year to date precipitation 7.51  
Sea Level Pressure  
Sea Level Pressure 29.91 in    
Wind  
Wind Speed 18 mph (SSW)    
Max Wind Speed 30 mph    
Max Gust Speed 36 mph    
Visibility 10 miles    
Events      
T = Trace of Precipitation, MM = Missing Value Source: NWS Daily Summary

Daily Weather History Graph

Daily Weather History Graph

Search for Another Location

Airport:

Trip Planner

Search our weather history database for the weather conditions in past years. The results will help you decide how hot, cold, wet, or windy it might be!

Date:

Astronomy

Dec. 23, 2012 Rise Set
Actual Time 7:43 AM MST 4:41 PM MST
Civil Twilight 7:11 AM MST 5:13 PM MST
Nautical Twilight 6:34 AM MST 5:49 PM MST
Astronomical Twilight 6:00 AM MST 6:24 PM MST
Moon 1:36 PM MST (12/23) 3:25 AM MST (12/23)
Length of Visible Light 10h 02m
Length of Day
8h 57m
Waxing Gibbous, 82% of the Moon is Illuminated
Dec 23
Waxing Gibbous
Dec 28
Full
Jan 4
Last Quarter
Jan 11
New
Jan 18
First Quarter

Hourly Weather History & Observations

Time (MST) Temp. Windchill Dew Point Humidity Pressure Visibility Wind Dir Wind Speed Gust Speed Precip Events Conditions
12:15 AM 24.8 °F 12.4 °F 5.0 °F 43% 29.84 in 10.0 mi South 15.0 mph 20.7 mph N/A   Clear
12:35 AM 24.8 °F 10.7 °F 5.0 °F 43% 29.82 in 10.0 mi South 19.6 mph - N/A   Clear
12:55 AM 23.0 °F 9.2 °F 5.0 °F 46% 29.82 in 10.0 mi SSE 17.3 mph 26.5 mph N/A   Clear
1:15 AM 24.8 °F 10.0 °F 6.8 °F 46% 29.82 in 10.0 mi South 21.9 mph 29.9 mph N/A   Clear
1:35 AM 24.8 °F 11.1 °F 6.8 °F 46% 29.82 in 10.0 mi SSE 18.4 mph 29.9 mph N/A   Clear
1:55 AM 23.0 °F 8.3 °F 6.8 °F 50% 29.84 in 10.0 mi South 19.6 mph 29.9 mph N/A   Clear
2:15 AM 24.8 °F 10.3 °F 8.6 °F 50% 29.84 in 10.0 mi South 20.7 mph 25.3 mph N/A   Clear
2:35 AM 24.8 °F 11.1 °F 8.6 °F 50% 29.86 in 10.0 mi South 18.4 mph 25.3 mph N/A   Clear
2:55 AM 26.6 °F 13.1 °F 10.4 °F 51% 29.86 in 10.0 mi SSW 19.6 mph 26.5 mph N/A   Clear
3:15 AM 24.8 °F 11.5 °F 10.4 °F 54% 29.87 in 10.0 mi South 17.3 mph 24.2 mph N/A   Clear
3:35 AM 24.8 °F 12.4 °F 10.4 °F 54% 29.89 in 10.0 mi SW 15.0 mph 20.7 mph N/A   Clear
3:55 AM 28.4 °F 14.7 °F 10.4 °F 47% 29.88 in 10.0 mi WSW 21.9 mph 28.8 mph N/A   Clear
4:15 AM 26.6 °F 12.0 °F 10.4 °F 51% 29.89 in 10.0 mi SW 23.0 mph 29.9 mph N/A   Clear
4:35 AM 26.6 °F 14.7 °F 10.4 °F 51% 29.88 in 10.0 mi SW 15.0 mph 20.7 mph N/A   Clear
4:55 AM 26.6 °F 14.7 °F 10.4 °F 51% 29.87 in 10.0 mi South 15.0 mph 23.0 mph N/A   Clear
5:15 AM 24.8 °F 12.4 °F 10.4 °F 54% 29.87 in 10.0 mi South 15.0 mph 23.0 mph N/A   Clear
5:35 AM 24.8 °F 12.4 °F 10.4 °F 54% 29.87 in 10.0 mi South 15.0 mph 23.0 mph N/A   Clear
5:55 AM 24.8 °F 10.7 °F 10.4 °F 54% 29.88 in 10.0 mi SW 19.6 mph 27.6 mph N/A   Clear
6:15 AM 26.6 °F 14.3 °F 10.4 °F 51% 29.89 in 10.0 mi SSW 16.1 mph 24.2 mph N/A   Clear
6:35 AM 24.8 °F 12.9 °F 10.4 °F 54% 29.90 in 10.0 mi SW 13.8 mph 23.0 mph N/A   Clear
6:55 AM 26.6 °F 13.4 °F 10.4 °F 51% 29.89 in 10.0 mi SW 18.4 mph - N/A   Clear
7:15 AM 26.6 °F 13.1 °F 10.4 °F 51% 29.89 in 10.0 mi SSW 19.6 mph 28.8 mph N/A   Clear
7:35 AM 24.8 °F 12.4 °F 10.4 °F 54% 29.91 in 10.0 mi SSW 15.0 mph 21.9 mph N/A   Scattered Clouds
7:55 AM 23.0 °F 11.1 °F 10.4 °F 59% 29.92 in 10.0 mi SSW 12.7 mph 21.9 mph N/A   Mostly Cloudy
8:15 AM 26.6 °F 10.3 °F 12.2 °F 55% 29.93 in 10.0 mi WSW 29.9 mph 34.5 mph N/A   Overcast
8:35 AM 26.6 °F 10.3 °F 10.4 °F 51% 29.95 in 10.0 mi WSW 29.9 mph 35.7 mph N/A   Overcast
8:55 AM 26.6 °F 15.2 °F 12.2 °F 55% 29.96 in 10.0 mi West 13.8 mph 23.0 mph N/A   Overcast
9:15 AM 26.6 °F 14.3 °F 10.4 °F 51% 29.97 in 10.0 mi West 16.1 mph 26.5 mph N/A   Scattered Clouds
9:35 AM 26.6 °F 12.4 °F 10.4 °F 51% 29.96 in 10.0 mi SW 21.9 mph 28.8 mph N/A   Scattered Clouds
9:55 AM 28.4 °F 13.3 °F 8.6 °F 43% 29.96 in 10.0 mi SW 27.6 mph 34.5 mph N/A   Scattered Clouds
10:15 AM 28.4 °F 13.8 °F 8.6 °F 43% 29.98 in 10.0 mi WSW 25.3 mph 31.1 mph N/A   Scattered Clouds
10:35 AM 28.4 °F 15.8 °F 8.6 °F 43% 29.99 in 10.0 mi SW 18.4 mph 28.8 mph N/A   Clear
10:55 AM 28.4 °F 14.7 °F 8.6 °F 43% 29.99 in 10.0 mi SW 21.9 mph 27.6 mph N/A   Clear
11:15 AM 30.2 °F 17.8 °F 8.6 °F 40% 29.99 in 10.0 mi SW 19.6 mph 31.1 mph N/A   Clear
11:35 AM 30.2 °F 17.4 °F 8.6 °F 40% 29.97 in 10.0 mi SSW 20.7 mph 25.3 mph N/A   Clear
11:55 AM 30.2 °F 16.8 °F 8.6 °F 40% 29.97 in 10.0 mi SSW 23.0 mph 33.4 mph N/A   Clear
12:15 PM 30.2 °F 17.8 °F 8.6 °F 40% 29.97 in 10.0 mi SW 19.6 mph 31.1 mph N/A   Clear
12:35 PM 30.2 °F 18.1 °F 8.6 °F 40% 29.98 in 10.0 mi WSW 18.4 mph 29.9 mph N/A   Clear
12:55 PM 30.2 °F 16.5 °F 5.0 °F 34% 29.98 in 10.0 mi SW 24.2 mph 32.2 mph N/A   Clear
1:15 PM 30.2 °F 15.9 °F 5.0 °F 34% 29.97 in 10.0 mi SW 26.5 mph 35.7 mph N/A   Clear
1:35 PM 30.2 °F 17.8 °F 5.0 °F 34% 29.97 in 10.0 mi SW 19.6 mph 26.5 mph N/A   Clear
1:55 PM 30.2 °F 17.1 °F 5.0 °F 34% 29.97 in 10.0 mi SW 21.9 mph 29.9 mph N/A   Clear
2:15 PM 30.2 °F 17.4 °F 5.0 °F 34% 29.97 in 10.0 mi WSW 20.7 mph 29.9 mph N/A   Clear
2:35 PM 30.2 °F 18.5 °F 5.0 °F 34% 29.96 in 10.0 mi WSW 17.3 mph 26.5 mph N/A   Clear
2:55 PM 30.2 °F 16.8 °F 1.4 °F 29% 29.95 in 10.0 mi SW 23.0 mph 27.6 mph N/A   Clear
3:15 PM 30.2 °F 19.8 °F 1.4 °F 29% 29.96 in 10.0 mi SW 13.8 mph 28.8 mph N/A   Clear
3:35 PM 28.4 °F 16.6 °F 1.4 °F 31% 29.96 in 10.0 mi SSW 16.1 mph 21.9 mph N/A   Clear
3:55 PM 28.4 °F 15.8 °F 3.2 °F 34% 29.95 in 10.0 mi SSW 18.4 mph 26.5 mph N/A   Clear
4:15 PM 28.4 °F 16.2 °F 5.0 °F 37% 29.95 in 10.0 mi SW 17.3 mph 23.0 mph N/A   Clear
4:35 PM 28.4 °F 15.1 °F 1.4 °F 31% 29.95 in 10.0 mi SSW 20.7 mph 26.5 mph N/A   Clear
4:55 PM 26.6 °F 13.8 °F -0.4 °F 31% 29.94 in 10.0 mi SW 17.3 mph 27.6 mph N/A   Clear
5:15 PM 26.6 °F 14.7 °F 1.4 °F 34% 29.93 in 10.0 mi SSW 15.0 mph 20.7 mph N/A   Clear
5:35 PM 26.6 °F 15.2 °F -0.4 °F 31% 29.94 in 10.0 mi SSW 13.8 mph 20.7 mph N/A   Clear
5:55 PM 26.6 °F 15.2 °F -0.4 °F 31% 29.93 in 10.0 mi South 13.8 mph - N/A   Clear
6:15 PM 26.6 °F 14.7 °F -0.4 °F 31% 29.92 in 10.0 mi South 15.0 mph - N/A   Clear
6:35 PM 26.6 °F 13.8 °F -0.4 °F 31% 29.92 in 10.0 mi SSE 17.3 mph - N/A   Clear
6:55 PM 26.6 °F 12.7 °F 1.4 °F 34% 29.91 in 10.0 mi South 20.7 mph - N/A   Scattered Clouds
7:15 PM 26.6 °F 13.4 °F 1.4 °F 34% 29.91 in 10.0 mi SSE 18.4 mph 24.2 mph N/A   Scattered Clouds
7:35 PM 26.6 °F 13.1 °F 1.4 °F 34% 29.90 in 10.0 mi SSE 19.6 mph 26.5 mph N/A   Mostly Cloudy
7:55 PM 24.8 °F 12.4 °F 1.4 °F 36% 29.89 in 10.0 mi SE 15.0 mph - N/A   Scattered Clouds
8:15 PM 23.0 °F 11.1 °F 3.2 °F 43% 29.89 in 10.0 mi SE 12.7 mph - N/A   Clear
8:35 PM 23.0 °F 11.7 °F 3.2 °F 43% 29.88 in 10.0 mi SE 11.5 mph 18.4 mph N/A   Clear
8:55 PM 23.0 °F 12.4 °F 5.0 °F 46% 29.88 in 10.0 mi ESE 10.4 mph - N/A   Clear
9:15 PM 23.0 °F 11.7 °F 5.0 °F 46% 29.88 in 10.0 mi SE 11.5 mph - N/A   Clear
9:35 PM 23.0 °F 10.1 °F 5.0 °F 46% 29.86 in 10.0 mi SE 15.0 mph - N/A   Clear
9:55 PM 21.2 °F 8.3 °F 5.0 °F 50% 29.86 in 10.0 mi SE 13.8 mph - N/A   Scattered Clouds
10:15 PM 23.0 °F 11.7 °F 6.8 °F 50% 29.86 in 10.0 mi SE 11.5 mph - N/A   Scattered Clouds
10:35 PM 21.2 °F 8.3 °F 6.8 °F 54% 29.85 in 10.0 mi SE 13.8 mph - N/A   Clear
10:55 PM 21.2 °F 7.8 °F 5.0 °F 50% 29.84 in 10.0 mi ESE 15.0 mph - N/A   Clear
11:15 PM 21.2 °F 8.9 °F 6.8 °F 54% 29.84 in 10.0 mi ESE 12.7 mph - N/A   Clear
11:35 PM 23.0 °F 11.1 °F 8.6 °F 54% 29.83 in 10.0 mi ESE 12.7 mph - N/A   Clear
11:55 PM 23.0 °F 10.6 °F 6.8 °F 50% 29.81 in 10.0 mi ESE 13.8 mph - N/A   Scattered Clouds